This demonstration page uses our WeatherBlox Daily Observations layout. Learn more.

Left ArrowRight Arrow

39.08367, -84.50855

Hourly Observations for October 21, 2015

Temp ( °F °C ) Dew Point ( °F °C ) Humidity (%) Winds ( mph kmh ) Pressure ( in mb ) Visibility ( mi km ) Precip ( " mm )
12:53 am 00:53 Clear 43 6.1 43 6.1 100 100 Calm 30.28 1025 10 16 0.00 0.00
1:53 am 01:53 Clear 40 4.4 39 3.9 97 97 Calm 30.29 1026 10 16 0.00 0.00
2:53 am 02:53 Clear 42 5.6 42 5.6 100 100 Calm 30.28 1026 10 16 0.00 0.00
3:53 am 03:53 Clear 44 6.7 43 6.1 96 96 Calm 30.28 1026 10 16 0.00 0.00
4:53 am 04:53 Clear 43 6.1 43 6.1 100 100 Calm 30.29 1026 10 16 0.00 0.00
5:53 am 05:53 Clear with Mist and Fog 41 5 41 5 100 100 Calm 30.32 1027 4 6 0.00 0.00
6:05 am 06:05 Clear with Mist and Fog 41 5 41 5 100 100 Calm 30.33 1027 2 2 0.00 0.00
6:13 am 06:13 Clear with Fog 41 5 41 5 100 100 Calm 30.33 1027 1 1 0.00 0.00
6:24 am 06:24 Clear with Mist and Fog 43 6 43 6 100 100 Calm 30.33 1027 1 2 0.00 0.00
6:32 am 06:32 Clear with Mist and Fog 41 5 41 5 100 100 Calm 30.33 1027 1 1 0.00 0.00
6:53 am 06:53 Clear with Patchy Fog 40 4.4 40 4.4 100 100 Calm 30.33 1027 10 16 0.00 0.00
7:00 am 07:00 Clear with Patchy Fog 39 4 39 4 100 100 Calm 30.33 1027 1 1 0.00 0.00
7:07 am 07:07 Clear with Patchy Fog 40 4.4 40 4.4 100 100 Calm 30.33 1027 10 16 0.00 0.00
7:53 am 07:53 Clear with Patchy Fog 39 3.9 39 3.9 100 100 Calm 30.33 1027 10 16 0.00 0.00
8:53 am 08:53 Sunny 42 5.6 42 5.6 100 100 Calm 30.35 1028 10 16 0.00 0.00
9:53 am 09:53 Sunny 51 10.6 46 7.8 83 83 SSW 3 6 30.36 1028 10 16 0.00 0.00
10:53 am 10:53 Sunny 56 13.3 46 7.8 70 70 SSW 6 9 30.34 1027 10 16 0.00 0.00
11:53 am 11:53 Sunny 63 17.2 48 8.9 58 58 S 6 9 30.32 1027 10 16 0.00 0.00
12:53 pm 12:53 Sunny 69 20.6 51 10.6 53 53 S 8 13 30.30 1026 10 16 0.00 0.00
1:53 pm 13:53 Sunny 72 22.2 49 9.4 44 44 SSW 13 20 30.27 1025 10 16 0.00 0.00
2:53 pm 14:53 Sunny 73 22.8 49 9.4 43 43 S 10 17 30.25 1024 10 16 0.00 0.00
3:53 pm 15:53 Sunny 74 23.3 46 7.8 37 37 SSW 14 22 30.23 1024 10 16 0.00 0.00
4:53 pm 16:53 Sunny 74 23.3 47 8.3 38 38 SSW 13 20 30.23 1024 10 16 0.00 0.00
5:53 pm 17:53 Sunny 70 21.1 47 8.3 44 44 SSW 8 13 30.23 1024 10 16 0.00 0.00
6:53 pm 18:53 Clear 66 18.9 48 8.9 52 52 SSW 7 11 30.24 1024 10 16 0.00 0.00
7:53 pm 19:53 Partly Cloudy 58 14.4 51 10.6 78 78 Calm 30.24 1024 10 16 0.00 0.00
8:53 pm 20:53 Clear 55 12.8 51 10.6 87 87 Calm 30.24 1024 10 16 0.00 0.00
9:53 pm 21:53 Clear 53 11.7 50 10 89 89 Calm 30.24 1024 10 16 0.00 0.00
10:53 pm 22:53 Clear 52 11.1 50 10 93 93 Calm 30.24 1024 10 16 0.00 0.00
11:53 pm 23:53 Clear 50 10 50 10 100 100 Calm 30.24 1024 10 16 0.00 0.00

Powered by AerisWeather